Location: Avon Lake
(41.5219°N, 93.5010°W)
Time: 22:58:37
(UTC+00:00)

Tiangong - Pass Details

Date: 20 April 2024
Orbit: 370 x 373 km, 41.5° (Epoch: 26 May)

Event Time Altitude Azimuth Distance (km) Brightness Sun altitude
Rises 02:34:40 0° 259° (WSW) 2,252 2.5 -16.9°
Reaches altitude 10° 02:36:45 10° 258° (WSW) 1,396 1.3 -17.3°
Maximum altitude 02:39:54 79° 171° (S) 389 -2.3 -17.7°
Enters shadow 02:40:12 68° 109° (ESE) 411 -2.3 -17.8°
